Regional Weather Roundup
Issued by NWS

Home | Current Version | Previous Version | Text Only | Print | Product List | Glossary On
Versions: 1 2 3 4 5 6 7 8 9 10 11 12 13 14 15 16 17 18 19 20 21 22 23 24 25 26 27 28 29 30 31 32 33 34 35 36 37 38 39 40 41 42 43 44 45 46 47 48 49 50
000
ASUS44 KMEG 211610
RWRTN
TENNESSEE HOURLY STATE WEATHER ROUNDUP
NATIONAL WEATHER SERVICE MEMPHIS TN
1100 AM CDT MON AUG 21 2017

TNZ002-004-019-021-049-052-054-088>092-211700-
WEST TENNESSEE

CITY           SKY/WX    TMP DP  RH WIND       PRES   REMARKS
MEMPHIS INTL   MOSUNNY   91  76  61 VRB6      30.16R HX 103
NWS MEMPHIS      N/A     89 N/A N/A MISG        N/A
JACKSON        MOSUNNY   89  78  70 CALM      30.17R HX 103
DYERSBURG      SUNNY     88  77  69 S3        30.16F HX 100
SOMERVILLE     SUNNY     90  75  62 NE3       30.16S HX 100
COVINGTON      SUNNY     88  79  74 NE5       30.15S HX 102
UNION CITY     SUNNY     88  77  70 SW6       30.14F HX 100
BOLIVAR        SUNNY     90  77  66 CALM      30.16S HX 102
PARIS          SUNNY     88  77  70 SW6       30.16S HX 100
HUNTINGDON     SUNNY     88  77  70 VRB6      30.16S HX 100
LEXINGTON      SUNNY     86  75  70 SW3       30.17S HX  95
SELMER         SUNNY     88  75  66 CALM      30.17S HX  97
SAVANNAH       SUNNY     90  75  62 CALM      30.16F HX 100
$$

TNZ008-025-027-028-033-062-065-066-211700-
NORTH MIDDLE TENNESSEE

CITY           SKY/WX    TMP DP  RH WIND       PRES   REMARKS
NASHVILLE      MOSUNNY   90  70  51 CALM      30.19S HX  95
PORTLAND       SUNNY     90  70  51 SW7       30.18S HX  95
CLARKSVILLE    SUNNY     88  71  57 SW6       30.17S HX  94
SMYRNA         MOSUNNY   88  70  55 SE3       30.20S HX  93
COOKEVILLE     SUNNY     88  72  58 VRB3      30.21F HX  94
GALLATIN       SUNNY     88  72  58 VRB5      30.20F HX  94
CROSSVILLE     MOSUNNY   84  64  50 VRB3      30.28S
$$

TNZ061-075-076-078-094-096-097-211700-
SOUTH MIDDLE TENNESSEE

CITY           SKY/WX    TMP DP  RH WIND       PRES   REMARKS
FAYETTEVILLE   SUNNY     86  72  62 VRB5      30.21S HX  92
TULLAHOMA      SUNNY     88  68  51 S5        30.23S HX  91
WINCHESTER     SUNNY     90  72  55 CALM      30.21F HX  96
MCMINNVILLE    SUNNY     90  73  58 CALM      30.22S HX  98
COLUMBIA       SUNNY     88  73  62 VRB5      30.17F HX  96
SHELBYVILLE    SUNNY     88  73  62 SW3       30.20S HX  96
$$

TNZ017-018-042-046-047-211700-
NORTHEAST TENNESSEE

CITY           SKY/WX    TMP DP  RH WIND       PRES   REMARKS
TRI CITIES     MOSUNNY   84  69  60 CALM      30.26F
ELIZABETHTON   SUNNY     86  70  58 NW6       30.26F HX  90
$$

TNZ012-013-036-069-073-074-211700-
CENTRAL EAST TENNESSEE

CITY           SKY/WX    TMP DP  RH WIND       PRES   REMARKS
KNOXVILLE      MOSUNNY   85  68  56 S3        30.22F
OAK RIDGE      SUNNY     87  69  54 CALM      30.24S HX  91
DOWNTOWN KNOXV SUNNY     86  72  62 CALM      30.21F HX  92
GATLINBURG     SUNNY     90  64  43 CALM      30.22F HX  91
MORRISTOWN     SUNNY     86  70  58 CALM      30.24S HX  90
JACKSBORO      SUNNY     84  72  65 VRB3      30.27F
$$

TNZ083-085-099-211700-
SOUTHEAST TENNESSEE

CITY           SKY/WX    TMP DP  RH WIND       PRES   REMARKS
CHATTANOOGA    MOSUNNY   87  69  54 CALM      30.21F HX  91
DAYTON         SUNNY     86  75  70 CALM      30.21F HX  95
$$

SKY/WX REPORTED AS FAIR MEANS FEW OR NO CLOUDS BELOW
12 THOUSAND FEET.





USA.gov is the U.S. government's official web portal to all federal, state and local government web resources and services.